Location: Casilda
(33.0440°S, 61.1680°W)
Time: 20:17:00
(UTC-03:00)

ISS - Pass Details

Date: 31 January 2021
Orbit: 417 x 422 km, 51.6° (Epoch: 26 February)

Event Time Altitude Azimuth Distance (km) Brightness Sun altitude
Exits shadow 03:52:49 12° 190° (S) 1,382 -0.7 -27.6°
Drops below altitude 10° 03:53:37 10° 177° (S) 1,526 -0.3 -27.4°
Sets 03:56:32 0° 150° (SSE) 2,396 1.3 -27.0°
